Tracking 28081 objects as of 27-Sep-2023
HD Live streaming from Space Station
objects crossing your sky now

SL-8 DEB *

Track SL-8 DEB * now!
10-day predictions


NORAD ID: 14865
Int'l Code: 1975-094E
Perigee: 668.0 km
Apogee: 672.0 km
Inclination: 74.0 °
Period: 98.0 minutes
Semi major axis: 7041 km
RCS: 0.0088 m2 (small)
Launch date: September 30, 1975
Source: Commonwealth of Independent States (former USSR) (CIS)
Launch site: PLESETSK MISSILE AND SPACE COMPLEX (PKMTR)

Note: This is SATELLITE DEBRIS
Your satellite tracking list
Your tracking list is empty




NASA's NSSDC Master Catalog

Two Line Element Set (TLE):
1 14865U 75094E   23270.16566214  .00005979  00000-0  10143-2 0  9995
2 14865  74.0273 332.3296 0002811 243.3725 146.9358 14.69431583 91791
Source of the keplerian elements: AFSPC